This demonstration page uses our WeatherBlox Daily Observations layout. Learn more.

Left ArrowRight Arrow

31.84235, -102.49876

Hourly Observations for May 25, 2017

Temp ( °F °C ) Dew Point ( °F °C ) Humidity (%) Winds ( mph kmh ) Pressure ( in mb ) Visibility ( mi km ) Precip ( " mm )
12:53 am 00:53 Clear 71 21.7 44 6.7 38 38 S 18 30 29.60 1002 10 16 0.00 0.00
1:53 am 01:53 Clear 70 21.1 45 7.2 41 41 S 16 26 29.58 1002 10 16 0.00 0.00
2:53 am 02:53 Clear 68 20 46 7.8 45 45 SSW 12 19 29.57 1001 10 16 0.00 0.00
3:53 am 03:53 Clear 67 19.4 46 7.8 47 47 SSW 13 20 29.56 1001 10 16 0.00 0.00
4:53 am 04:53 Clear 66 18.9 47 8.3 50 50 SSW 13 20 29.56 1001 10 16 0.00 0.00
5:53 am 05:53 Clear 66 18.9 47 8.3 50 50 SSW 13 20 29.55 1001 10 16 0.00 0.00
6:53 am 06:53 Sunny 63 17.2 48 8.9 58 58 SSW 8 13 29.57 1001 10 16 0.00 0.00
7:53 am 07:53 Sunny 68 20 46 7.8 45 45 SSW 10 17 29.58 1002 10 16 0.00 0.00
8:53 am 08:53 Sunny 74 23.3 44 6.7 34 34 SW 12 19 29.59 1002 10 16 0.00 0.00
9:53 am 09:53 Sunny 82 27.8 36 2.2 19 19 WSW 12 19 29.60 1002 10 16 0.00 0.00
10:53 am 10:53 Sunny 87 30.6 34 1.1 15 15 W 16 26 29.60 1002 10 16 0.00 0.00
11:53 am 11:53 Sunny 94 34.4 30 -1.1 10 10 W 17 28 29.60 1002 10 16 0.00 0.00
12:53 pm 12:53 Sunny 97 36.1 23 -5 7 7 W 16 26 29.59 1002 10 16 0.00 0.00
1:53 pm 13:53 Sunny 100 37.8 20 -6.7 5 5 W 20 31 29.57 1001 10 16 0.00 0.00
2:53 pm 14:53 Sunny 98 36.7 20 -6.7 6 6 W 24 39 29.56 1001 10 16 0.00 0.00
3:53 pm 15:53 Sunny 99 37.2 19 -7.2 5 5 W 23 37 29.54 1001 10 16 0.00 0.00
4:53 pm 16:53 Sunny 98 36.7 20 -6.7 6 6 WSW 22 35 29.53 1000 10 16 0.00 0.00
5:53 pm 17:53 Sunny 98 36.7 15 -9.4 5 5 WSW 18 30 29.52 1000 10 16 0.00 0.00
6:53 pm 18:53 Sunny 96 35.6 14 -10 5 5 W 15 24 29.52 1000 10 16 0.00 0.00
7:53 pm 19:53 Sunny 94 34.4 16 -8.9 6 6 W 17 28 29.53 1000 10 16 0.00 0.00
8:53 pm 20:53 Clear 90 32.2 20 -6.7 8 8 WSW 9 15 29.54 1000 10 16 0.00 0.00
9:53 pm 21:53 Clear 88 31.1 22 -5.6 9 9 SSW 10 17 29.56 1001 10 16 0.00 0.00
10:53 pm 22:53 Clear 84 28.9 51 10.6 32 32 S 12 19 29.60 1002 10 16 0.00 0.00
11:53 pm 23:53 Clear 81 27.2 57 13.9 44 44 SSW 15 24 29.62 1003 10 16 0.00 0.00

Powered by AerisWeather